TimePDT,TemperatureF,Dew PointF,Humidity,Sea Level PressureIn,VisibilityMPH,Wind Direction,Wind SpeedMPH,Gust SpeedMPH,PrecipitationIn,Events,Conditions,WindDirDegrees,DateUTC
12:53 AM,36.0,32.0,86,30.26,10.0,Calm,Calm,-,N/A,,Clear,0,2013-03-11 07:53:00
1:53 AM,35.1,30.0,82,30.27,10.0,Calm,Calm,-,N/A,,Clear,0,2013-03-11 08:53:00
2:51 AM,35.6,30.2,81,30.25,10.0,Calm,Calm,-,N/A,,Mostly Cloudy,0,2013-03-11 09:51:00
2:53 AM,35.1,30.9,85,30.28,10.0,Calm,Calm,-,N/A,,Mostly Cloudy,0,2013-03-11 09:53:00
3:07 AM,33.8,30.2,87,30.25,10.0,Calm,Calm,-,N/A,,Mostly Cloudy,0,2013-03-11 10:07:00
3:18 AM,33.8,30.2,87,30.25,10.0,West,3.5,-,N/A,,Scattered Clouds,260,2013-03-11 10:18:00
3:53 AM,33.1,28.9,85,30.29,10.0,Calm,Calm,-,N/A,,Clear,0,2013-03-11 10:53:00
4:53 AM,30.9,30.0,96,30.30,8.0,Calm,Calm,-,N/A,,Clear,0,2013-03-11 11:53:00
5:53 AM,32.0,30.0,92,30.31,8.0,Calm,Calm,-,N/A,,Clear,0,2013-03-11 12:53:00
6:53 AM,32.0,28.9,88,30.32,5.0,Calm,Calm,-,N/A,,Clear,0,2013-03-11 13:53:00
7:18 AM,33.8,28.4,81,30.29,6.0,Calm,Calm,-,N/A,,Partly Cloudy,0,2013-03-11 14:18:00
7:53 AM,34.0,30.0,85,30.34,6.0,Calm,Calm,-,N/A,,Scattered Clouds,0,2013-03-11 14:53:00
8:25 AM,35.6,30.2,81,30.30,8.0,Calm,Calm,-,N/A,,Mostly Cloudy,0,2013-03-11 15:25:00
8:53 AM,35.1,30.9,85,30.36,5.0,Calm,Calm,-,N/A,,Overcast,0,2013-03-11 15:53:00
9:53 AM,37.0,32.0,82,30.36,10.0,WSW,6.9,-,N/A,,Scattered Clouds,240,2013-03-11 16:53:00
10:53 AM,39.0,32.0,76,30.36,10.0,West,6.9,-,N/A,,Scattered Clouds,260,2013-03-11 17:53:00
11:53 AM,43.0,28.9,58,30.34,10.0,West,3.5,-,N/A,,Clear,280,2013-03-11 18:53:00
12:53 PM,46.0,24.1,42,30.32,10.0,West,4.6,-,N/A,,Clear,280,2013-03-11 19:53:00
1:53 PM,48.0,21.0,34,30.30,10.0,Variable,4.6,-,N/A,,Partly Cloudy,0,2013-03-11 20:53:00
2:53 PM,50.0,21.9,33,30.29,10.0,Variable,3.5,-,N/A,,Partly Cloudy,0,2013-03-11 21:53:00
3:53 PM,48.2,19.4,32,30.25,10.0,SSW,5.8,-,N/A,,Partly Cloudy,210,2013-03-11 22:53:00
4:53 PM,50.0,19.0,29,30.27,10.0,SW,9.2,-,N/A,,Partly Cloudy,230,2013-03-11 23:53:00
5:53 PM,48.9,19.9,32,30.27,10.0,WSW,4.6,-,N/A,,Clear,240,2013-03-12 00:53:00
6:53 PM,44.1,24.1,45,30.27,10.0,Calm,Calm,-,N/A,,Clear,0,2013-03-12 01:53:00
7:53 PM,41.0,25.0,53,30.27,10.0,NNE,3.5,-,N/A,,Clear,20,2013-03-12 02:53:00
8:53 PM,39.9,27.0,60,30.27,10.0,NNE,3.5,-,N/A,,Partly Cloudy,20,2013-03-12 03:53:00
9:53 PM,39.9,24.1,53,30.26,10.0,Calm,Calm,-,N/A,,Mostly Cloudy,0,2013-03-12 04:53:00
10:53 PM,41.0,24.1,51,30.25,10.0,NNE,3.5,-,N/A,,Overcast,30,2013-03-12 05:53:00
11:53 PM,39.9,25.0,55,30.25,10.0,NE,3.5,-,N/A,,Overcast,50,2013-03-12 06:53:00